Regional Weather Roundup
Issued by NWS

Home | Current Version | Previous Version | Text Only | Print | Product List | Glossary On
Versions: 1 2 3 4 5 6 7 8 9 10 11 12 13 14 15 16 17 18 19 20 21 22 23 24 25 26 27 28 29 30 31 32 33 34 35 36 37 38 39 40 41 42 43 44 45 46 47 48 49 50
000
ASUS43 KDTX 221601
RWRMI
MICHIGAN HOURLY REGIONAL WEATHER ROUNDUP
NATIONAL WEATHER SERVICE DETROIT/PONTIAC MI
1200 PM EDT TUE APR 22 2014

NOTE: "FAIR" INDICATES FEW OR NO CLOUDS BELOW 12,000 FEET WITH NO
SIGNIFICANT WEATHER AND/OR OBSTRUCTION TO VISIBILITY.

MIZ047>049-052>055-059>063-066>070-074>076-081>083-221700-
SOUTHEAST LOWER MICHIGAN

CITY           SKY/WX    TMP DP  RH WIND       PRES   REMARKS
ADRIAN         SUNNY     52  34  50 NW18G28   29.81R
ALMA           CLOUDY    46  32  58 NW18G24   29.83S
ANN ARBOR      PTSUNNY   52  34  50 NW13G23   29.79R
BAD AXE        CLOUDY    43  34  70 NW14G24   29.75S
CARO           PTSUNNY   48  37  64 W17G24    29.77F
DETROIT CITY   SUNNY     54  34  46 NW13G25   29.76R
DETROIT        MOSUNNY   54  36  50 NW18G24   29.78R
FLINT          CLOUDY    46  34  62 NW17G24   29.81R
GROSSE ILE     SUNNY     54  37  54 NW17G24   29.75S
HILLSDALE      MOSUNNY   51  34  52 NW20G26   29.82S
HOWELL         PTSUNNY   48  34  58 NW17G24   29.80S

CITY           SKY/WX    TMP DP  RH WIND       PRES   REMARKS
JACKSON        MOSUNNY   50  35  56 NW14G26   29.82S
LAMBERTVILLE   SUNNY     55  36  47 NW14G20   29.78S
LANSING        CLOUDY    47  33  58 NW17      29.84S
LAPEER         CLOUDY    44  33  67 NW16      29.78S
MASON          CLOUDY    48  33  56 NW18G30   29.82S
MONROE         SUNNY     55  39  54 NW18      29.76S
MT. CLEMENS    PTSUNNY   51  37  58 NW17G23   29.75R
PONTIAC        PTSUNNY   46  33  60 NW21      29.77R
PORT HOPE        N/A     45  34  65 W12G22    29.71F
PORT HURON     CLOUDY    45  37  76 NW14G23   29.76R
TRI CITIES     CLOUDY    48  33  56 NW20G30   29.79F
TROY           MOSUNNY   49  34  55 NW18G26   29.78R
SAGINAW HB     CLOUDY    48  34  57 W20G28    29.78F
YPSILANTI      SUNNY     56  36  47 NW20G28   29.78R
$$
MIZ043>046-050>051-056>058-064>065-071>073-077>080-221700-
SOUTHWEST LOWER MICHIGAN

CITY           SKY/WX    TMP DP  RH WIND       PRES   REMARKS
BATTLE CREEK   MOSUNNY  N/A N/A N/A NW21G29   29.87R FOG
BENTON HARBOR  SUNNY     41  33  73 NW15G24   29.96R
BIG RAPIDS     CLOUDY    40  31  69 NW13G24   29.87R WCI  32
COLDWATER      PTSUNNY   48  35  59 NW17      29.85S
FREMONT        CLOUDY    42  31  64 NW18G25   29.90R
HOLLAND        SUNNY     45  32  60 NW20G28   29.93R
GRAND RAPIDS   PTSUNNY   49  32  52 NW16G28   29.88R
IONIA          PTSUNNY   47  32  55 NW15G22   29.84S
KALAMAZOO      MOSUNNY   49  32  52 NW16      29.88S
LUDINGTON      CLOUDY    41  32  72 N14G20    29.94R
MARSHALL       PTSUNNY   47  32  56 NW13G21   29.84S
MOUNT PLEASANT CLOUDY    44  32  63 W17G23    29.83R
MUSKEGON       PTSUNNY   46  32  58 NW17G23   29.92R
SOUTH HAVEN    SUNNY     43  32  66 NW16G26   29.95R
$$
MIZ016>042-221700-
NORTHERN LOWER MICHIGAN

CITY           SKY/WX    TMP DP  RH WIND       PRES   REMARKS
ALPENA         CLOUDY    40  35  83 W10G24    29.72S WCI  33
BEAVER ISLAND  CLOUDY    36  31  84 NW12G20   29.85R WCI  27
BELLAIRE       CLOUDY    36  32  87 NW7       29.85R WCI  30
CADILLAC       CLOUDY    35  31  86 NW14G22   29.85R WCI  26
CHARLEVOIX     CLOUDY    35  33  92 NW14G22   29.87R WCI  26
FRANKFORT      CLOUDY    37  31  77 NW8       29.92R WCI  31
GAYLORD        CLOUDY    33  32  96 NW14G26   29.77S FOG     WCI  23
GRAYLING       LGT SNOW  35  34  97 W17G23    29.80S WCI  25
HARBOR SPRINGS CLOUDY    38  34  85 NW7G17    29.79S WCI  32
HOUGHTON LAKE  CLOUDY    37  31  78 NW20G28   29.80S WCI  27
MANISTEE       CLOUDY    39  28  65 N10G18    29.93R WCI  32
OSCODA         CLOUDY    45  35  68 W13G23    29.72R
PELLSTON       CLOUDY    37  33  85 NW17G30   29.79R WCI  27
ROGERS CITY    CLOUDY    39  36  89 W14G26    29.74R WCI  31
TRAVERSE CITY  CLOUDY    37  30  75 NW20G28   29.87R WCI  27
$$
MIZ007>008-015-221700-
EASTERN UPPER MICHIGAN

CITY           SKY/WX    TMP DP  RH WIND       PRES   REMARKS
KINROSS        CLOUDY    39  34  81 NW21G32   29.73S WCI  29
MACKINAC ISLAN CLOUDY    38  34  84 S14G25    29.76R WCI  30
NEWBERRY       CLOUDY    34  31  88 NW15G24   29.82R WCI  24
S. S. MARIE    CLOUDY    39  32  76 NW9G20    29.74R WCI  33
MUNISING         N/A     35  28  75 NW17G33   29.93R WCI  25
$$
MIZ004>006-011>014-085-221700-
CENTRAL UPPER MICHIGAN

CITY           SKY/WX    TMP DP  RH WIND       PRES   REMARKS
MANISTIQUE     FLURRIES  36  32  84 NW22G30   29.87R WCI  25
ESCANABA       CLOUDY    43  27  52 NW14G25   29.91S
MENOMINEE      MOSUNNY   45  27  49 N16G23    29.93S
SAWYER-GWINN   CLOUDY    37  27  65 N15G25    29.93R WCI  28
$$
MIZ001>003-009>011-084-221700-
WESTERN UPPER MICHIGAN

CITY           SKY/WX    TMP DP  RH WIND       PRES   REMARKS
IRON MOUNTAIN  CLOUDY    40  24  53 NW21G26   29.94R WCI  30
HOUGHTON       LGT SNOW  34  28  79 NW16      30.00R WCI  24
COPPER HARBOR    N/A     34  29  82 N17       29.99R WCI  23
IRONWOOD       CLOUDY    37  25  60 NW13      30.03R WCI  29
$$

ABBREVIATIONS USED IN REMARKS
   TC - TEMPERATURE IN CELSIUS
  WCI - WIND CHILL INDEX
   HX - HEAT INDEX
  VSB - VISIBILITY




USA.gov is the U.S. government's official web portal to all federal, state and local government web resources and services.